Location: Cave
(41.8160°N, 12.9350°E)
Time: 02:52:41
(UTC+02:00)

ISS - Pass Details

Date: 04 July 2019
Orbit: 409 x 418 km, 51.6° (Epoch: 20 July)

Event Time Altitude Azimuth Distance (km) Brightness Sun altitude
Exits shadow 03:21:36 47° 141° (SE) 554 -3.4 -18.7°
Maximum altitude 03:21:36 47° 140° (SE) 554 -3.4 -18.7°
Drops below altitude 10° 03:24:48 10° 65° (ENE) 1,477 -0.2 -18.4°
Sets 03:26:56 0° 59° (ENE) 2,340 1.2 -18.2°
